Regional Weather Roundup
Issued by NWS San Diego, CA

Home | Current Version | Previous Version | Text Only | Print | Product List | Glossary On
Versions: 1 2 3 4 5 6 7 8 9 10 11 12 13 14 15 16 17 18 19 20 21 22 23 24 25 26 27 28 29 30 31 32 33 34 35 36 37 38 39 40 41 42 43 44 45 46 47 48 49 50
000
ASUS46 KSGX 240210
RWRSGX

SAN DIEGO HOURLY WEATHER ROUNDUP
NATIONAL WEATHER SERVICE SAN DIEGO CA
700 PM PDT TUE SEP 23 2014

NOTE: "FAIR" INDICATES FEW OR NO CLOUDS BELOW 12,000 FEET WITH NO
SIGNIFICANT WEATHER AND/OR OBSTRUCTIONS TO VISIBILITY.

CAZ042-043-060-061-PZZ750-775-240300-

GREATER SAN DIEGO AREA

CITY           SKY/WX    TMP DP  RH WIND       PRES   REMARKS
LINDBERGH FLD  PTCLDY    72  65  78 NW10      29.89S
POINT LOMA       N/A     70  65  85 NW17        N/A
NATIONAL CITY    N/A     74  68  82 CALM      29.88S
CHULA VISTA      N/A     73  68  83 W5        29.81S
IMPERIAL BEACH PTCLDY    72  67  84 NW10      29.89R
BROWN FIELD    CLEAR     70  66  87 W8        29.89R
MIRAMAR MCAS   PTCLDY    71  65  81 NW10      29.89R
MONTGOMERY FLD CLEAR     72  65  78 NW10      29.89R

$$

NORTH SAN DIEGO COUNTY

CITY           SKY/WX    TMP DP  RH WIND       PRES   REMARKS
CAMP PENDLETON CLEAR     73  61  65 S6        29.87R
OCEANSIDE AP   CLEAR     72  65  78 W6        29.87S
OCEANSIDE HBR    N/A     71  68  89 W7        29.90S
VISTA            N/A     74  66  75 CALM      29.86S
CARLSBAD       CLEAR     71  65  81 W5        29.88S
DEL MAR          N/A     71  67  86 CALM      29.91S
LA JOLLA SCRIP   N/A     70  67  90 W1        29.86
FALLBROOK        N/A     74  69  85 CALM      29.87S
ESCONDIDO        N/A     78  65  63 SW3       29.89S
SAN MARCOS       N/A     75  66  73 NW2       29.86S
POWAY            N/A     74  66  74 CALM      29.88R

$$

EAST SAN DIEGO COUNTY

CITY           SKY/WX    TMP DP  RH WIND       PRES   REMARKS
RAMONA         CLEAR     79  55  43 NW6       29.92R
SANTEE LAKES     N/A     77  65  67 W7        29.88R
LA MESA          N/A     77  66  68 W5        29.82R
JAMUL            N/A     78  65  63 CALM      29.86S
MT. LAGUNA OBS   N/A     68  46  45 CALM      29.76S
CAMPO            N/A     81  50  33 SW7       29.95R

$$

ORANGE COUNTY AND THE LOS ANGELES BASIN

CITY           SKY/WX    TMP DP  RH WIND       PRES   REMARKS
JOHN WAYNE AP  CLEAR     78  61  55 SW5       29.87S
LAGUNA BEACH     N/A    N/A  18   0 CALM      29.83F
LAKE FOREST FR   N/A     78  58  50 CALM      29.78S
SANTA ANA        N/A     79  64  60 CALM      29.82S
HUNTINGTON BCH   N/A     71  65  83 W3        29.89F
LOS ALAMITOS   CLEAR     74  62  66 W6        29.87S
FULLERTON      CLEAR     78  61  55 W6        29.86S
LONG BEACH     CLEAR     72  63  73 NW12      29.88S
L.A. AP        PTCLDY    68  63  84 W13       29.89F
L.A. DOWNTOWN  CLEAR     72  62  71 W5        29.88S

$$

THE INLAND EMPIRE

CITY           SKY/WX    TMP DP  RH WIND       PRES   REMARKS
CORONA         CLEAR     82  58  43 NW9       29.87S
CHINO          CLEAR     81  58  45 W12       29.88S
ONTARIO        CLEAR     86  55  34 W12       29.88S
SAN BERNARDINO CLEAR     86  48  26 MISG      29.89R
RIVERSIDE AP   CLEAR     84  54  35 W9        29.88R
RIV CYN CREST    N/A     85  64  48 N3        29.87R
MORENO VALLEY    N/A     86  58  38 NW3       29.11R
MARCH ARB      CLEAR     83  54  36 NW7       29.92R
HORSETHIEF CYN   N/A     83  52  33 SW3       29.89S
PERRIS           N/A     86  55  34 W5        29.87S
MENIFEE          N/A     90  51  25 CALM      29.95S
HEMET EAST       N/A     85  42  21 CALM      29.86S
FRENCH VALLEY  FAIR      84  54  34 S8        29.91S
TEMECULA         N/A     86  52  31 CALM      29.86R

$$

SAN BERNARDINO AND RIVERSIDE COUNTY MOUNTAINS

CITY           SKY/WX    TMP DP  RH WIND       PRES   REMARKS
BIG BEAR AP    CLEAR     63  32  31 W3        30.28R
PINE COVE        N/A     66  43  42 NW2       29.84S

$$

SOUTHERN DESERT INCLUDING THE COACHELLA VALLEY

CITY           SKY/WX    TMP DP  RH WIND       PRES   REMARKS
PALM SPRINGS   CLEAR     99  45  15 E3        29.81R HX  95
THOUSAND PALMS   N/A     95  50  21 E2        29.74S
PALM DESERT      N/A     97  56  25 CALM      28.74  HX  95
THERMAL        CLEAR     88  57  34 SE3       29.74S
BLYTHE         CLEAR     98  52  21 SE5       29.78S HX  95
IMPERIAL AP    CLEAR     99  55  23 CALM      29.75R HX  97
EL CENTRO NAS  PTCLDY    98  50  19 CALM      29.75R HX  95
YUMA AZ        CLEAR    100  49  17 S5        29.77R HX  97
MEXICALI       CLEAR     99  54  22 SE3       29.77  HX  96

$$

UPPER DESERT

CITY           SKY/WX    TMP DP  RH WIND       PRES   REMARKS
VICTORVILLE AP CLEAR     82  28  14 S14       29.98R
HESPERIA         N/A     83  40  21 W5        29.97R
APPLE VALLEY     N/A     83  36  18 SW2G20    30.04S
PALMDALE       CLEAR     83  29  14 SW12      29.96S
LANCASTER      CLEAR     81  12   7 W9        29.96R
EDWARDS AFB    CLEAR     87  12   6 W17       29.92S
DAGGETT        CLEAR     91  33  12 NW7       29.90R
29 PALMS N     CLEAR     90  40  17 SW13      29.97R
NEEDLES        CLEAR     96  39  13 CALM      29.83S

$$

REGIONAL REPORTS

CITY           SKY/WX    TMP DP  RH WIND       PRES   REMARKS
SANTA BARBARA  CLEAR     68  60  75 CALM      29.89S
SANDBERG       CLEAR     75  32  20 S14       30.11S
MT. WILSON       N/A     70  21  16 S5          N/A
LAS VEGAS NV   CLEAR     92  29  10 E9        29.89R
PHOENIX AZ     PTCLDY    99  40  13 NW6       29.82R
TIJUANA        CLEAR     72  63  73 W12       29.91R
ENSENADA NW      N/A     74  32  21 E3        29.85S

$$

OFFSHORE ISLANDS

CITY           SKY/WX    TMP DP  RH WIND       PRES   REMARKS
CATALINA ARPT  CLEAR     66  58  75 SW5       29.94F
SAN CLEMENTE I MOCLDY    69  63  81 NW12      29.92S
SAN NICOLAS IS CLEAR    N/A N/A N/A W21       29.91S

$$

MARINE AND OFFSHORE BUOY REPORTS

STATION/POSITION SKY/WX   TEMP    WIND        PRES    SWELL
                          AIR SEA DIR/SP/G            HT/PER/DIR
                          (F)     (DEG/KT/KT) (MB)    (FT/S/D)
TANNER BANKS               66 71  320/ 17/ 21 1012.7F   3/310/11
S CLEMENTE BASIN           70 72  310/ 14/ 16 1011.8F   3/280/11
SAN NICOLAS IS.               69                N/A     2/300/11
SO. S. ROSA ISLA           65 68  320/ 17/ 21 1012.4F   3/10
W. S. BARBARA CH           63 65  320/ 19/ 23 1011.8F   3/310/ 9
S. MONICA BASIN            68 71  300/  8/ 10 1011.9F   2/200/13
S PEDRO CHANNEL               72                N/A     2/250/11
DANA POINT                    72                N/A     2/200/14
CMP PENDLETON NS              70                N/A     2/200/13
OCEANSIDE OFFSHR              73                N/A     2/210/14
TORREY PINES OTR              71                N/A     2/200/13
LA JOLLA 1                 71 67  330/  5/  7 1012.1S
MISSION BAY BUOY              72                N/A     2/200/15
SAN DIEGO BAY                 76              1012.4R

$$




USA.gov is the U.S. government's official web portal to all federal, state and local government web resources and services.